Find Starlink 11482

NORAD ID: 62520 Int'l Des: 2025-004 Owner: SPXS Country: US Constellation: starlink operational
別名: STARLINK-11482 [DTC] celestrak
LEOCIRCULAR

現在のビュー

3D地球を読み込み中...

About Starlink 11482

Starlink 11482 (NORAD 62520) is a starlink constellation satellite (v2 mini d2c) launched Jan 8, 2025 by SPXS of US. It operates in LEO, CIRCULAR orbit with a mass of 960.00 kg.

次回通過

Passes for default location (London). Set your location on the main map for personalized predictions.

高度履歴

Loading altitude history...

軌道要素

1 62520U 25004K 26236.43145205 .00219715 00000-0 16654-2 0 9998
2 62520 43.0008 139.3040 0001658 287.1502 72.9184 15.70918897 93599
Epoch: Aug 24, 2026 • Age: 20 hours

現在のステータス

高度 367.0 km
遠地点 / 近地点 N/A
速度 7.69 km/s
衛星直下点 -41.83°S, 0.29°E
打ち上げ日 Jan 8, 2025
運用期間 1.6 years
タイプ internet

技術仕様

分類 Payload
質量 960.00 kg
乾燥質量 910.00 kg
総質量 960.00 kg
長さ 0.30 m
直径 4.10 m
スパン 29.00 m
形状 Box + pan
製造者 SPXS
バスタイプ Starlink V2MD
フェーズステータス In Orbit
所有者/国 SPXS/US

Most Searched